Location: ??????????
(54.8537°N, 38.8755°E)
Time: 22:35:07
(UTC+00:00)

Transit 2A Rocket - Pass Details

Date: 21 September 2024
Orbit: 582 x 908 km, 66.7° (Epoch: 09 October)

Event Time Altitude Azimuth Distance (km) Brightness Sun altitude
Rises 01:59:57 0° 312° (NW) 3,538 8.1 -10.6°
Reaches altitude 10° 02:02:41 10° 319° (NW) 2,577 7.5 -10.2°
Maximum altitude 02:08:22 42° 30° (NNE) 1,223 6.5 -9.4°
Drops below altitude 10° 02:13:42 10° 101° (E) 2,418 8.8 -8.6°
Sets 02:16:11 0° 108° (ESE) 3,297 9.4 -8.3°
